Showing default

SKYSAT C6, 42992

Orbit data source: Space-Track

SKYSAT C6, 42992 is a payload satellite owned by Terra Bella (US) in SSO that was launched on Tue, 31 Oct 2017 UTC via a MINOTAUR-C 3210 launch vehicle from the Air Force Western Test Range (AFWTR). Payload-class satellites include a variety of spacecraft equipped with specific instruments for various scientific and technological missions. These include communications satellites like Starlink; space stations such as the ISS; scientific satellites like the Hubble; Earth observation satellites from companies like Planet Labs, Umbra, and HawkEye 360; GPS; miniature CubeSats for education and research; and military/defense satellites.

Loading next visibility...
Identifier
42992, 2017-068F
Orbit
SSO
Country
Flag of USUS
Related business
Manufacturer
Maxar SSL
Mission
Operational Commercial Imaging
Bus & Motor
SKYSAT-GEN2, Unknown motor
Mass
110 kg wet, 110 kg dry
Launch date (UTC)
2017-10-31 (8 years ago)
Launch vehicle
MINOTAUR-C 3210
Launch site
Air Force Western Test Range (AFWTR)
Object type
Payload
Rocket body
Debris
Shape & HBR
Box, 1.0 m
Radar Cross Section
0.888 m², Medium (>0.1 m² and < 1m²)

Expand to show TLE details & history
Last TLE update: 23 hours ago

TLE from 23 hours ago
0 SKYSAT C6
1 42992U 17068F   25288.34246323  .00013260  00000-0  44236-3 0  9994
2 42992  97.4268  59.7141 0002434 173.9832 186.1439 15.31190458444828
Epoch: 2025-10-15T08:13Z
TLE epoch observation values (Epoch: 2025-10-15T08:13:08.823Z)
Latitude
0.00002°
Longitude
-87.69058°
Altitude
477.022 km
Speed
7.626 km/s
True Right ascension
03h 58m 51s
True Declination
0° 00' 00"
Sunlit
Object was in full shadow at epoch
Visualization orbit readout
Latitude
Unknown
Longitude
Unknown
Altitude
Unknown
Speed
Unknown
Apparent Right ascension
Unknown
Apparent Declination
Unknown
Sunlit
N/A
Visualization observer readout
Local Sidereal Time
02:05:36
Azimuth
Unknown
Elevation
Unknown
Doppler factor
Unknown
Orbital elements
Apogee altitude
470.878 km
Perigee altitude
467.545 km
Semi-major axis
6,847.348 km
Eccentricity
0.00024
Inclination
97.4268°
RAAN
59.7141°
Arg. of periapsis
173.9832°
True anomaly
186.14092°
Mean anomaly
186.1439°
Eccentric anomaly
186.14241°
Mean motion
3.83054 °/min
Orbital period
93.98 mins
BSTAR
0.00044236
Loading maneuver chart data...
Computing Atmospheric mass density...
Loading historical data...
Loading historical data...
Loading historical data...
Loading historical data...
Loading historical data...
Loading historical data...
Loading historical data...

Documentation

Showing up to 5 results
|